一网星座-0559星 (ONEWEB-0559)

导读

ONEWEB-0559是英国OneWeb公司(一网公司)旗下低轨宽带通信卫星,于2023年3月26日发射入轨,属于OneWeb全球卫星互联网星座组网卫星。该星座计划由超600颗卫星组成,运行于1200公里近地轨道,可为全球提供高速低延迟互联网接入服务,覆盖偏远地区并支撑应急通信场景。ONEWEB-0559的成功入轨,进一步推动了OneWeb完成全球星座组网,完善全球卫星互联网络覆盖能力。

基本信息
目录编号:
56060
目录名称:
ONEWEB-0559
国际标识:
2023-043Q
轨道中心:
EARTH
卫星名称:
一网星座-0559星
卫星全名:
一网星座-0559星 (ONEWEB-0559)
卫星状态:
在轨 (已飞行1206 天)
发射日期:
2023-03-26 UTC
国别 :
英国 (GB)
星等 :
--
轨道信息
数据来源 国际轨道数据 AOE轨道数据
星历时间 2026-07-13T22:57:31+0800
15小时前
查看轨道信息
2026-07-08T23:00:00+0800
5天前
查看轨道信息
半长轴 7555.899km 7555.895km
偏心率 0.0002282 0.0002116
轨道倾角 87.923° 87.925°
近地点辐角 98.936° 97.437°
升交点赤经 238.714° 239.708°
平近点角 261.203° 251.755°
近地点 1176.037km 1176.159km
远地点 1179.487km 1179.357km
周期 108.940分钟 108.940分钟
每日圈数 13.218239 13.218249
详细信息
平衡模式:
三轴稳定
覆盖范围:
全球
运营商:
一网卫星公司
运营商所在国:
英国
制造商(研发单位):
一网卫星公司
制造商所在国:
英国
使用方式:
暂无
卫星简介
OneWeb卫星网络由648颗重约125公斤的微型卫星组成,运行在1200公里的轨道上。 每颗卫星都能够提供至少每秒8千兆位的吞吐量,以使用其高吞吐量的Ku频段有效载荷为家庭和移动平台提供互联网接入。该卫星仍在工作。
2D轨道图
3D轨道图
轨道高度分析图
轨道倾角分析图
轨道综合分析图
查看轨道综合分析图